STARLINK-32493, 62025

Orbit data source: Space-Track

STARLINK-32493, 62025 is a payload satellite owned by SpaceX/Seattle (US) in LEO that was launched on Mon, 18 Nov 2024 UTC via an FALCON 9 launch vehicle from the Air Force Western Test Range (AFWTR). Payload-class satellites include a variety of spacecraft equipped with specific instruments for various scientific and technological missions. These include communications satellites like Starlink; space stations such as the ISS; scientific satellites like the Hubble; Earth observation satellites from companies like Planet Labs, Umbra, and HawkEye 360; GPS; miniature CubeSats for education and research; and military/defense satellites.

Loading next visibility...
Identifier
62025, 2024-213T
Orbit
LEO
Country
Flag of USUS
Related business
Manufacturer
SpaceX/Seattle
Mission
Operational Commercial Communications
Bus & Motor
STARLINK V2M, Unknown motor
Mass
730 kg wet, ~700 kg dry
Launch date (UTC)
2024-11-18 (1 year ago)
Launch vehicle
FALCON 9
Launch site
Air Force Western Test Range (AFWTR)
Object type
Payload
Rocket body
Debris
Shape & HBR
Box + 2 Pan, 17.7 m
Radar Cross Section
33.884 m², Large (>1 m²)

Expand to show TLE details & history
Last TLE update: 1 day ago

TLE from 1 day ago
0 STARLINK-32493
1 62025U 24213T   25312.54586632  .00040517  00000-0  13735-2 0  9997
2 62025  53.1602  11.0767 0001563 117.6029 242.5131 15.30179612 54605
Epoch: 2025-11-08T13:06Z
TLE epoch observation values (Epoch: 2025-11-08T13:06:02.850Z)
Latitude
0.00003°
Longitude
126.59092°
Altitude
476.67 km
Speed
7.628 km/s
True Right ascension
00h 44m 18s
True Declination
0° 00' 00"
Sunlit
Object was in full shadow at epoch
Visualization orbit readout
Latitude
Unknown
Longitude
Unknown
Altitude
Unknown
Speed
Unknown
Apparent Right ascension
Unknown
Apparent Declination
Unknown
Sunlit
N/A
Visualization observer readout
Local Sidereal Time
18:56:11
Azimuth
Unknown
Elevation
Unknown
Doppler factor
Unknown
Orbital elements
Apogee altitude
476.604 km
Perigee altitude
474.461 km
Semi-major axis
6,853.669 km
Eccentricity
0.00016
Inclination
53.1602°
RAAN
11.0767°
Arg. of periapsis
117.6029°
True anomaly
242.49721°
Mean anomaly
242.5131°
Eccentric anomaly
242.50516°
Mean motion
3.82524 °/min
Orbital period
94.11 mins
BSTAR
0.0013735
Loading maneuver chart data...
Computing Atmospheric mass density...
Loading historical data...
Loading historical data...
Loading historical data...
Loading historical data...
Loading historical data...
Loading historical data...
Loading historical data...

Documentation

Showing up to 5 results
|